CAPE
nan nan nan nan nan nan nan nan nan nan nan nan nan nan nan 5 nan nan 0 1 1 0 0 nan nan nan nan 3 6 6 5 4 2 2 2 2 3 3 4 3 3 5 5 6 6 7 9 9 9 12 14 15 17 17 17 17 17 17 19 21 21 24 27 30 30 34 38 42 40 40 37 36 33 33 33 33 35 35 36 37 37 38 40 42 42 42
nan nan nan nan nan nan nan nan nan nan nan nan nan nan nan nan nan nan nan 3 3 3 4 0 0 nan nan nan 1 1 1 1 1 1 1 1 2 2 2 4 4 4 4 7 7 8 9 13 13 13 14 17 17 17 17 19 19 18 20 22 22 24 24 26 26 29 31 32 31 31 31 29 28 28 27 29 30 30 32 32 32 34 37 40 40 47
0 nan nan nan nan nan nan nan nan nan nan 0 0 0 nan nan 0 0 1 3 3 4 0 nan nan nan nan nan nan nan nan 0 0 0 nan 0 1 1 2 3 3 3 4 6 6 8 11 13 13 13 16 18 18 18 18 19 19 19 20 20 20 22 22 23 23 24 24 24 24 24 23 22 21 21 22 24 27 27 30 32 32 32 39 43 43 45
nan nan 0 nan nan nan nan nan nan nan nan 0 1 1 nan 0 1 1 2 0 0 nan nan nan nan nan nan nan nan nan nan nan nan nan nan 0 1 1 1 1 1 1 2 4 4 7 9 12 12 13 15 16 17 17 18 18 18 18 19 20 20 21 22 21 21 22 19 21 18 18 18 18 18 18 21 22 27 27 28 30 30 31 40 42 42 48
nan nan 0 nan nan nan nan nan 0 0 2 2 1 1 nan 0 1 1 nan nan nan nan nan nan nan nan nan nan nan nan nan nan nan nan nan nan 0 0 0 nan nan nan 0 2 2 5 8 11 11 13 14 14 15 15 15 15 15 15 17 18 18 22 22 23 23 22 21 23 21 21 22 20 23 23 24 26 28 28 28 28 28 30 32 39 39 46
nan nan 0 0 0 0 1 1 1 1 2 1 0 0 0 nan nan nan nan nan nan nan nan nan nan nan nan nan nan nan nan nan nan nan nan nan nan nan nan nan nan nan nan 0 0 3 7 10 10 12 13 13 14 14 14 15 15 17 21 21 21 24 26 23 23 23 23 22 24 24 23 25 21 21 22 25 26 26 28 29 29 30 32 35 35 42
nan 0 1 0 0 1 1 2 1 1 1 1 nan nan nan nan nan nan nan nan nan nan nan nan nan nan nan nan nan nan nan nan nan nan nan nan nan nan nan nan nan nan nan 0 0 3 7 11 11 13 14 14 14 14 16 17 17 18 21 20 20 18 18 18 18 18 18 19 20 20 21 22 22 22 20 18 21 21 25 26 26 29 32 34 34 37
nan 0 0 0 0 1 1 2 2 2 0 0 0 0 nan nan nan nan nan nan nan nan nan nan nan nan nan nan nan nan nan nan nan nan nan nan nan nan nan nan nan nan 0 3 3 7 11 13 13 14 16 15 16 16 17 15 15 12 9 8 8 6 7 7 7 9 9 10 12 12 12 12 11 11 12 12 13 13 15 19 19 25 30 38 38 39
nan nan 0 nan nan 0 0 0 nan nan nan nan nan nan nan nan nan nan nan nan nan nan nan nan nan nan nan nan nan nan nan nan nan nan nan nan nan nan nan nan nan nan 1 4 4 7 10 12 12 12 13 12 13 13 11 9 9 6 4 3 3 3 3 4 4 6 7 8 9 9 10 10 11 11 11 12 12 12 13 15 15 22 29 35 35 40
nan nan 0 nan nan nan nan nan nan nan nan nan nan nan nan nan nan nan nan nan nan nan nan nan nan nan nan nan nan nan nan nan nan nan nan nan nan nan nan nan nan nan nan 2 2 4 4 4 4 6 7 6 7 7 5 2 2 1 0 0 0 1 2 3 3 4 5 6 7 7 9 10 11 11 11 13 13 13 13 16 16 19 25 34 34 38
nan nan nan nan nan nan nan nan nan nan nan nan nan nan nan nan nan nan nan nan nan nan nan nan nan nan nan nan nan nan nan nan nan nan nan nan nan nan nan nan nan nan nan nan nan nan nan nan nan nan nan 0 nan nan nan nan nan nan nan nan nan 0 0 1 1 2 4 5 7 7 9 11 13 13 13 14 16 16 16 17 17 19 24 32 32 37
nan nan nan nan nan nan nan nan nan nan nan nan nan nan nan nan nan nan nan nan nan nan nan nan nan nan nan nan nan nan nan nan nan nan nan nan nan nan nan nan nan nan nan nan nan nan nan nan nan nan nan nan nan nan nan nan nan nan nan nan nan 0 0 1 1 3 4 6 8 8 12 13 16 16 17 18 19 19 19 19 19 22 25 31 31 37
nan nan nan nan nan nan nan nan nan nan nan nan nan nan nan nan nan nan nan nan nan nan nan nan nan nan nan nan nan nan nan nan nan nan nan nan nan nan nan nan nan nan nan nan nan nan nan nan nan nan nan nan nan nan nan nan nan nan nan nan nan 0 1 3 3 6 7 10 13 13 15 17 18 18 19 20 21 21 23 23 23 26 29 34 34 39
nan nan nan nan nan nan nan nan nan nan nan nan nan nan nan nan nan nan nan nan nan nan nan nan nan nan nan nan nan nan nan nan nan nan nan nan nan nan nan nan nan nan nan nan nan nan nan nan nan nan nan nan nan nan nan nan nan nan nan nan nan 1 4 6 6 8 10 12 14 14 15 17 18 18 18 20 22 22 25 25 25 27 30 35 35 40
nan nan nan nan nan nan nan nan nan nan nan nan nan nan nan nan nan nan nan nan nan nan nan nan nan nan nan nan nan nan nan nan nan nan nan nan nan nan nan nan nan nan nan nan nan nan nan nan nan nan nan nan nan nan nan nan nan nan nan 1 1 4 5 7 7 9 10 12 14 14 15 15 16 16 19 19 22 22 24 26 26 29 29 35 35 40
nan nan nan nan nan nan nan nan nan nan nan nan nan nan nan nan nan nan nan nan nan nan nan nan nan nan nan nan nan nan nan nan nan nan nan nan nan nan nan nan nan nan nan nan nan nan nan nan nan nan nan nan nan nan nan nan nan 0 1 3 3 5 6 7 7 8 9 12 13 13 14 15 17 17 18 20 22 22 25 26 26 28 30 32 32 35
nan nan nan nan nan nan nan nan nan nan nan nan nan nan nan nan nan nan nan nan nan nan nan nan nan nan nan nan nan nan nan nan nan nan nan nan nan nan nan nan nan nan nan nan nan nan nan nan nan nan nan nan nan nan nan nan nan 0 2 3 3 4 4 6 6 7 9 10 14 14 15 17 17 17 18 19 21 21 22 25 25 25 27 29 29 31
nan nan nan nan nan nan nan nan nan nan nan nan nan nan nan nan nan nan nan nan nan nan nan nan nan nan nan nan nan nan nan nan nan nan nan nan nan nan nan nan nan nan nan nan nan nan nan nan nan nan nan nan nan nan nan 0 0 0 1 2 2 2 4 6 6 7 8 10 14 14 15 16 17 17 17 18 18 18 19 21 21 23 26 28 28 31
nan nan nan nan nan nan nan nan nan nan nan nan nan nan nan nan nan nan nan nan nan nan nan nan nan nan nan nan nan nan nan nan nan nan nan nan nan nan nan nan nan nan nan nan nan nan nan nan nan nan nan nan nan nan nan 0 0 0 0 2 2 3 3 4 4 7 8 12 13 13 14 15 14 14 14 15 18 18 20 22 22 26 27 30 30 32
nan nan nan nan nan nan nan nan nan nan nan nan nan nan nan nan nan nan nan nan nan nan nan nan nan nan nan nan nan nan nan nan nan nan nan nan nan nan nan nan nan nan nan nan nan nan nan nan nan nan nan nan nan nan nan nan nan 0 1 1 1 3 4 5 5 7 10 12 13 13 14 13 14 14 15 16 18 18 19 19 19 21 21 25 25 26
nan nan nan nan nan nan nan nan nan nan nan nan nan nan nan nan nan nan nan nan nan nan nan nan nan nan nan nan nan nan nan nan nan nan nan nan nan nan nan nan nan nan nan nan nan nan nan nan nan nan nan nan nan nan nan nan nan 0 1 1 1 3 4 6 6 7 9 10 11 11 14 13 14 14 15 15 16 16 16 16 16 17 19 19 19 20
nan nan nan nan nan nan nan nan nan nan nan nan nan nan nan nan nan nan nan nan nan nan nan nan nan nan nan nan nan nan nan nan nan nan nan nan nan nan nan nan nan nan nan nan nan nan nan nan nan nan nan nan nan nan nan nan nan 0 1 2 2 3 4 6 6 7 8 9 11 11 13 13 14 14 13 14 14 14 14 14 14 17 17 19 19 20
nan nan nan nan nan nan nan nan nan nan nan nan nan nan nan nan nan nan nan nan nan nan nan nan nan nan nan nan nan nan nan nan nan nan nan nan nan nan nan nan nan nan nan nan nan nan nan nan nan nan nan nan nan nan nan nan nan 0 1 2 2 3 4 5 5 6 7 9 12 12 13 12 13 13 13 13 15 15 14 15 15 16 17 19 19 22
nan nan nan nan nan nan nan nan nan nan nan nan nan nan nan nan nan nan nan nan nan nan nan nan nan nan nan nan nan nan nan nan nan nan nan nan nan nan nan nan nan nan nan nan nan nan nan nan nan nan nan nan nan nan nan nan nan 0 1 2 2 2 3 4 4 5 7 7 10 10 12 12 13 13 13 13 14 14 16 17 17 17 18 18 18 20
nan nan nan nan nan nan nan nan nan nan nan nan nan nan nan nan nan nan nan nan nan nan nan nan nan nan nan nan nan nan nan nan nan nan nan nan nan nan nan nan nan nan nan nan nan nan nan nan nan nan nan nan nan nan nan nan nan 0 0 1 1 1 2 3 3 4 6 7 8 8 9 10 12 12 12 13 14 14 16 17 17 17 17 17 17 19
nan nan nan nan nan nan nan 10 20 20 nan nan nan nan nan nan nan nan nan nan nan nan nan nan nan 0 nan nan nan nan nan nan nan nan nan nan nan nan nan nan nan nan nan nan nan nan nan nan nan nan nan nan nan nan nan nan nan nan 0 0 0 0 1 1 1 2 2 3 5 5 7 9 11 11 12 12 15 15 17 18 18 17 18 17 17 17
5 nan 4 9 9 10 14 16 19 19 31 1 nan nan nan nan nan nan nan nan nan nan nan nan nan nan nan nan nan nan nan nan nan nan nan nan nan nan nan nan nan nan nan nan nan nan nan nan nan nan nan nan nan nan nan nan nan nan nan nan nan nan nan 0 0 0 1 2 3 3 5 7 10 10 11 13 14 14 15 17 17 17 17 16 16 17
nan nan nan nan nan nan 1 2 5 5 9 17 17 17 7 nan nan nan 0 nan nan nan nan 0 0 0 nan nan nan nan nan nan nan nan nan nan nan nan nan nan nan nan nan nan nan nan nan nan nan nan nan nan nan nan nan nan nan nan nan nan nan nan nan nan nan 0 0 1 2 2 4 6 9 9 11 12 13 13 15 17 17 18 18 10 10 0
nan nan nan nan nan nan nan nan nan nan 1 5 9 9 2 nan nan nan nan nan nan nan 0 1 1 1 0 nan nan nan nan nan nan nan nan nan nan nan nan nan nan nan nan nan nan nan nan nan nan nan nan nan nan nan nan nan nan nan nan nan nan nan nan nan nan nan 0 0 1 1 4 6 8 8 9 11 13 13 14 14 14 17 13 4 4 nan
nan nan nan nan nan nan nan nan nan nan nan 5 6 6 0 nan nan nan nan nan nan nan 2 3 3 1 0 nan nan nan nan nan nan nan nan nan nan nan nan nan nan nan nan nan nan nan nan nan nan nan nan nan nan nan nan nan nan nan nan nan nan nan nan nan nan nan 0 0 1 1 3 4 6 6 7 9 10 10 12 14 14 10 0 nan nan nan
nan nan nan nan nan nan nan nan nan nan nan nan 0 0 nan nan nan nan nan nan nan nan 2 2 2 1 2 0 nan nan nan nan nan nan nan nan nan nan nan nan nan nan nan nan nan nan nan nan nan nan nan nan nan nan nan nan nan nan nan nan nan nan nan nan nan nan 0 0 1 1 2 3 5 5 6 7 8 8 10 13 13 8 nan nan nan nan
nan nan nan nan nan nan nan nan nan nan nan nan nan nan nan nan nan nan nan nan nan nan nan nan nan 0 2 1 nan nan nan nan nan nan nan nan nan nan nan nan nan nan nan 0 0 nan nan nan nan nan nan nan nan nan nan nan nan nan nan nan nan nan nan nan nan nan nan 0 0 0 1 1 2 2 2 3 4 4 6 8 8 8 nan nan nan nan
nan nan nan nan nan nan nan nan nan nan nan nan nan nan nan nan nan nan nan nan nan nan nan nan nan nan 0 0 0 0 0 nan nan nan 1 nan nan nan nan nan nan nan nan nan nan nan nan nan nan nan nan nan nan nan nan nan nan nan nan nan nan nan nan nan nan nan nan nan nan nan 0 0 1 1 1 2 3 3 4 6 6 8 8 1 1 0
nan nan nan nan nan nan nan nan nan nan nan nan nan nan nan nan nan nan nan nan nan nan nan nan nan nan nan 0 0 0 nan nan 1 1 1 nan nan nan nan nan nan nan nan nan nan nan nan nan nan nan nan nan nan nan nan nan nan nan nan nan nan nan nan nan nan nan nan nan nan nan nan nan nan nan nan 1 2 2 5 7 7 10 14 9 9 4
nan nan nan nan nan nan nan nan nan nan nan nan nan nan nan nan nan nan nan nan nan nan nan nan nan nan nan nan nan nan nan nan nan nan 1 nan nan nan nan nan nan nan nan nan nan nan nan nan nan nan nan nan nan nan nan nan nan nan nan nan nan nan nan nan nan nan nan nan nan nan nan nan nan nan nan nan 2 2 7 10 10 13 15 19 19 11
nan nan nan nan nan nan nan nan nan nan nan nan nan nan nan nan nan nan nan nan nan nan nan nan nan nan nan nan nan nan nan nan nan nan 1 nan nan nan nan nan nan nan nan nan nan 0 nan nan nan 0 0 nan nan nan nan nan nan nan nan nan nan nan nan nan nan nan nan nan nan nan nan nan nan nan nan nan 5 5 8 9 9 11 10 12 12 10
nan nan nan nan nan nan nan nan nan nan nan nan nan nan nan nan nan nan nan nan nan nan nan nan nan nan nan nan nan nan nan nan nan nan nan nan nan nan nan nan nan 1 0 0 0 1 nan nan nan nan nan nan nan nan nan nan nan nan nan nan nan nan nan nan nan nan nan nan nan nan nan nan nan nan nan 0 0 0 3 6 6 5 6 6 6 8
nan nan nan nan nan nan nan nan nan nan nan nan nan nan nan nan nan nan nan nan nan nan nan nan nan nan nan nan nan nan nan nan nan nan nan nan nan nan nan nan nan 2 3 1 1 0 0 nan nan nan nan nan nan nan nan nan nan nan nan nan nan nan nan nan nan nan nan nan nan nan nan nan nan nan nan nan nan nan nan nan nan nan 1 2 2 6
nan nan nan nan nan nan nan nan nan nan nan nan nan nan nan nan nan nan nan nan nan nan nan nan nan nan nan nan nan nan nan nan nan nan nan nan nan nan nan 0 0 1 1 1 1 1 0 nan nan nan nan nan nan nan nan nan nan nan nan nan nan nan nan nan nan nan nan nan nan nan nan nan nan nan nan nan nan nan nan nan nan nan nan nan nan nan
nan nan nan nan nan nan nan nan nan nan nan nan 0 0 nan nan nan nan nan nan nan nan nan nan nan nan nan nan nan nan nan nan nan nan nan nan nan nan nan nan nan 0 0 nan nan nan nan nan nan nan nan nan nan nan nan nan nan nan 0 nan nan nan nan nan nan nan nan nan nan nan nan nan nan nan nan nan nan nan nan nan nan nan nan nan nan nan
nan nan nan nan nan nan nan nan nan nan nan nan nan nan nan nan nan nan nan nan nan nan nan nan nan nan nan nan nan nan nan nan nan nan nan nan nan nan nan nan nan nan nan nan nan nan nan nan nan nan nan nan nan nan nan nan nan 1 3 nan nan nan nan nan nan nan nan nan nan nan nan nan nan nan nan nan nan nan nan nan nan nan nan nan nan nan
nan nan nan nan nan nan nan nan nan nan 0 nan nan nan nan nan nan nan nan nan nan nan nan nan nan nan nan nan nan nan nan nan nan nan nan nan nan nan nan nan nan nan nan nan nan nan nan nan nan nan nan nan nan nan nan nan nan 0 0 nan nan nan 0 nan nan nan nan nan nan nan nan nan nan nan nan nan nan nan nan nan nan nan nan nan nan nan
nan nan nan nan nan nan nan nan nan nan nan nan nan nan nan nan nan nan nan nan nan nan 0 nan nan nan nan nan nan nan nan nan nan nan nan nan nan nan nan nan nan nan nan nan nan nan nan nan nan nan nan nan nan nan nan nan nan nan nan 0 0 0 nan nan nan nan nan nan nan nan nan nan nan nan nan nan nan nan nan nan nan 0 1 nan nan nan
nan nan nan nan nan nan nan nan nan nan nan nan nan nan nan nan nan nan nan nan nan 0 nan nan nan nan nan nan nan nan nan nan nan nan nan nan nan nan nan nan nan nan nan nan nan nan nan nan nan nan nan nan nan nan nan nan nan nan nan nan nan nan nan nan nan nan nan nan nan nan nan nan nan nan nan nan nan nan nan nan nan nan nan nan nan nan
nan nan nan 0 0 0 0 0 0 0 nan nan nan nan nan nan 0 0 nan nan nan nan nan nan nan nan nan nan nan nan nan nan nan nan nan nan 0 0 nan nan nan nan nan nan nan nan nan nan nan nan nan nan nan nan nan nan nan nan 0 0 0 0 nan 0 0 0 nan nan nan nan nan nan nan nan nan nan nan nan nan nan nan nan nan nan nan nan
nan nan nan 1 1 0 2 1 0 0 nan nan nan nan nan nan nan nan nan nan nan nan nan nan nan nan nan nan nan nan nan nan nan nan nan nan nan nan nan nan nan nan nan nan nan nan nan nan nan nan nan nan nan nan nan nan nan nan nan 0 0 nan nan 0 0 nan nan nan nan nan nan nan nan nan nan nan nan nan nan nan nan nan nan nan nan nan
nan nan nan 0 0 0 0 nan nan nan nan nan nan nan nan nan nan nan nan nan nan nan nan nan nan nan nan nan nan nan nan nan nan nan nan nan nan nan nan nan nan nan nan nan nan nan nan nan nan nan nan nan nan nan nan nan nan nan nan nan nan nan nan nan nan nan nan nan nan nan nan nan nan nan nan nan nan nan nan nan nan nan nan nan nan nan
nan nan nan nan nan nan nan nan nan nan nan nan nan nan nan nan nan nan nan nan nan nan 0 nan nan nan nan nan nan nan nan nan nan nan nan nan nan nan nan nan nan nan nan nan nan nan nan nan nan nan nan nan nan nan nan nan nan nan nan nan nan nan nan nan nan nan nan nan nan nan nan nan nan nan nan nan nan nan nan nan nan nan nan nan nan nan
0 0 0 nan nan nan nan nan nan nan nan nan nan nan nan nan 4 4 nan nan nan nan nan nan nan nan nan nan nan nan nan nan nan nan nan nan nan nan nan nan nan nan nan nan nan nan nan nan nan nan nan nan nan nan nan nan nan nan nan nan nan nan nan nan nan nan nan nan nan nan nan nan nan nan nan nan nan nan nan nan nan nan nan 0 0 nan
nan nan nan nan nan nan nan nan nan nan nan nan nan nan nan nan nan nan nan nan nan nan nan nan nan nan nan nan nan nan nan nan nan nan nan nan nan nan nan nan nan nan nan nan nan nan nan nan nan nan nan nan nan nan nan nan nan nan nan nan nan nan nan nan nan nan nan nan nan nan nan nan nan nan nan nan 0 0 0 nan nan 0 nan nan nan nan
nan nan nan nan nan nan nan nan nan nan nan nan nan nan nan nan nan nan nan nan nan nan nan nan nan nan nan nan nan nan nan nan nan nan nan nan nan nan nan nan nan nan nan nan nan nan nan nan nan nan nan 9 nan nan nan nan nan nan nan nan nan nan nan nan nan nan nan nan nan nan nan nan nan nan nan nan 0 0 0 0 0 nan nan nan nan nan
CIN
nan nan nan nan nan nan nan nan nan nan nan nan nan nan nan -0 nan nan -0 -0 -0 -1 -1 nan nan nan nan -0 -0 -0 -0 -0 -0 -0 -0 -0 -0 -0 -0 -0 -0 -0 -0 -0 -0 -0 -0 -0 -0 -0 -0 -0 -0 -0 -0 -0 -0 -0 -0 -0 -0 -0 -0 -0 -0 -0 -0 -0 -0 -0 -0 -0 -0 -0 -0 -0 -0 -0 -0 -0 -0 -0 -0 -0 -0 -0
nan nan nan nan nan nan nan nan nan nan nan nan nan nan nan nan nan nan nan -0 -0 -1 -0 -1 -1 nan nan nan -0 -0 -0 -0 -0 -0 -0 -0 -0 -0 -0 -0 -0 -0 -0 -0 -0 -0 -0 -0 -0 -0 -0 -0 -0 -0 -0 -0 -0 -0 -0 -0 -0 -0 -0 -0 -0 -0 -0 -0 -0 -0 -0 -0 -0 -0 -0 -0 -0 -0 -0 -0 -0 -0 -0 -0 -0 -0
-0 nan nan nan nan nan nan nan nan nan nan -0 -0 -0 nan nan -0 -0 -0 -0 -0 -0 -1 nan nan nan nan nan nan nan nan -0 -0 -0 nan -0 -0 -0 -0 -0 -0 -0 -0 -0 -0 -0 -0 -0 -0 -0 -0 -0 -0 -0 -0 -0 -0 -0 -0 -0 -0 -0 -0 -0 -0 -0 -0 -0 -0 -0 -0 -0 -0 -0 -0 -0 -0 -0 -0 -0 -0 -0 -0 -0 -0 -0
nan nan -0 nan nan nan nan nan nan nan nan -0 -0 -0 nan -0 -0 -0 -0 -1 -1 nan nan nan nan nan nan nan nan nan nan nan nan nan nan -0 -0 -0 -0 -0 -0 -0 -0 -0 -0 -0 -0 -0 -0 -0 -0 -0 -0 -0 -0 -0 -0 -0 -0 -0 -0 -0 -0 -0 -0 -0 -0 -0 -0 -0 -0 -0 -0 -0 -0 -0 -0 -0 -0 -0 -0 -0 -0 -0 -0 -0
nan nan -0 nan nan nan nan nan -0 -0 -0 -0 -0 -0 nan -0 -0 -0 nan nan nan nan nan nan nan nan nan nan nan nan nan nan nan nan nan nan -0 -0 -0 nan nan nan -0 -0 -0 -0 -0 -0 -0 -0 -0 -0 -0 -0 -0 -0 -0 -0 -0 -0 -0 -0 -0 -0 -0 -0 -0 -0 -0 -0 -0 -0 -0 -0 -0 -0 -0 -0 -0 -0 -0 -0 -0 -0 -0 -0
nan nan -0 -0 -0 -0 -0 -0 -0 -0 -0 -0 -0 -0 -0 nan nan nan nan nan nan nan nan nan nan nan nan nan nan nan nan nan nan nan nan nan nan nan nan nan nan nan nan -0 -0 -0 -0 -0 -0 -0 -0 -0 -0 -0 -0 -0 -0 -0 -0 -0 -0 -0 -0 -0 -0 -0 -0 -0 -0 -0 -0 -0 -0 -0 -0 -0 -0 -0 -0 -0 -0 -0 -0 -0 -0 -0
nan -0 -0 -0 -0 -0 -0 -0 -0 -0 -0 -0 nan nan nan nan nan nan nan nan nan nan nan nan nan nan nan nan nan nan nan nan nan nan nan nan nan nan nan nan nan nan nan -0 -0 -0 -0 -0 -0 -0 -0 -0 -0 -0 -0 -0 -0 -0 -0 -0 -0 -0 -0 -0 -0 -0 -0 -0 -0 -0 -0 -0 -0 -0 -0 -0 -0 -0 -0 -0 -0 -0 -0 -0 -0 -0
nan -0 -0 -0 -0 -0 -0 -0 -0 -0 -0 -0 -0 -0 nan nan nan nan nan nan nan nan nan nan nan nan nan nan nan nan nan nan nan nan nan nan nan nan nan nan nan nan -0 -0 -0 -0 -0 -0 -0 -0 -0 -0 -0 -0 -0 -0 -0 -0 -0 -0 -0 -0 -0 -0 -0 -0 -0 -0 -0 -0 -0 -0 -0 -0 -0 -0 -0 -0 -0 -0 -0 -0 -0 -0 -0 -0
nan nan -0 nan nan -0 -0 -0 nan nan nan nan nan nan nan nan nan nan nan nan nan nan nan nan nan nan nan nan nan nan nan nan nan nan nan nan nan nan nan nan nan nan -0 -0 -0 -0 -0 -0 -0 -0 -0 -0 -0 -0 -0 -0 -0 -0 -0 -0 -0 -0 -0 -0 -0 -0 -0 -0 -0 -0 -0 -0 -0 -0 -0 -0 -0 -0 -0 -0 -0 -0 -0 -0 -0 -0
nan nan -0 nan nan nan nan nan nan nan nan nan nan nan nan nan nan nan nan nan nan nan nan nan nan nan nan nan nan nan nan nan nan nan nan nan nan nan nan nan nan nan nan -0 -0 -0 -0 -0 -0 -0 -0 -0 -0 -0 -0 -0 -0 -0 -0 -0 -0 -0 -0 -0 -0 -0 -0 -0 -0 -0 -0 -0 -0 -0 -0 -0 -0 -0 -0 -0 -0 -0 -0 -0 -0 -0
nan nan nan nan nan nan nan nan nan nan nan nan nan nan nan nan nan nan nan nan nan nan nan nan nan nan nan nan nan nan nan nan nan nan nan nan nan nan nan nan nan nan nan nan nan nan nan nan nan nan nan -0 nan nan nan nan nan nan nan nan nan -0 -0 -0 -0 -0 -0 -0 -0 -0 -0 -0 -0 -0 -0 -0 -0 -0 -0 -0 -0 -0 -0 -0 -0 -0
nan nan nan nan nan nan nan nan nan nan nan nan nan nan nan nan nan nan nan nan nan nan nan nan nan nan nan nan nan nan nan nan nan nan nan nan nan nan nan nan nan nan nan nan nan nan nan nan nan nan nan nan nan nan nan nan nan nan nan nan nan -0 -0 -0 -0 -0 -0 -0 -0 -0 -0 -0 -0 -0 -0 -0 -0 -0 -0 -0 -0 -0 -0 -0 -0 -0
nan nan nan nan nan nan nan nan nan nan nan nan nan nan nan nan nan nan nan nan nan nan nan nan nan nan nan nan nan nan nan nan nan nan nan nan nan nan nan nan nan nan nan nan nan nan nan nan nan nan nan nan nan nan nan nan nan nan nan nan nan -0 -0 -0 -0 -0 -0 -0 -0 -0 -0 -0 -0 -0 -0 -0 -0 -0 -0 -0 -0 -0 -0 -0 -0 -0
nan nan nan nan nan nan nan nan nan nan nan nan nan nan nan nan nan nan nan nan nan nan nan nan nan nan nan nan nan nan nan nan nan nan nan nan nan nan nan nan nan nan nan nan nan nan nan nan nan nan nan nan nan nan nan nan nan nan nan nan nan -0 -0 -0 -0 -0 -0 -0 -0 -0 -0 -0 -0 -0 -0 -0 -0 -0 -0 -0 -0 -0 -0 -0 -0 -0
nan nan nan nan nan nan nan nan nan nan nan nan nan nan nan nan nan nan nan nan nan nan nan nan nan nan nan nan nan nan nan nan nan nan nan nan nan nan nan nan nan nan nan nan nan nan nan nan nan nan nan nan nan nan nan nan nan nan nan -0 -0 -0 -0 -0 -0 -0 -0 -0 -0 -0 -0 -0 -0 -0 -0 -0 -0 -0 -0 -0 -0 -0 -0 -0 -0 -0
nan nan nan nan nan nan nan nan nan nan nan nan nan nan nan nan nan nan nan nan nan nan nan nan nan nan nan nan nan nan nan nan nan nan nan nan nan nan nan nan nan nan nan nan nan nan nan nan nan nan nan nan nan nan nan nan nan -0 -0 -0 -0 -0 -0 -0 -0 -0 -0 -0 -0 -0 -0 -0 -0 -0 -0 -0 -0 -0 -0 -0 -0 -0 -0 -0 -0 -0
nan nan nan nan nan nan nan nan nan nan nan nan nan nan nan nan nan nan nan nan nan nan nan nan nan nan nan nan nan nan nan nan nan nan nan nan nan nan nan nan nan nan nan nan nan nan nan nan nan nan nan nan nan nan nan nan nan -0 -0 -0 -0 -0 -0 -0 -0 -0 -0 -0 -0 -0 -0 -0 -0 -0 -0 -0 -0 -0 -0 -0 -0 -0 -0 -0 -0 -0
nan nan nan nan nan nan nan nan nan nan nan nan nan nan nan nan nan nan nan nan nan nan nan nan nan nan nan nan nan nan nan nan nan nan nan nan nan nan nan nan nan nan nan nan nan nan nan nan nan nan nan nan nan nan nan -0 -0 -0 -0 -0 -0 -0 -0 -0 -0 -0 -0 -0 -0 -0 -0 -0 -0 -0 -0 -0 -0 -0 -0 -0 -0 -0 -0 -0 -0 -0
nan nan nan nan nan nan nan nan nan nan nan nan nan nan nan nan nan nan nan nan nan nan nan nan nan nan nan nan nan nan nan nan nan nan nan nan nan nan nan nan nan nan nan nan nan nan nan nan nan nan nan nan nan nan nan -0 -0 -0 -0 -0 -0 -0 -0 -0 -0 -0 -0 -0 -0 -0 -0 -0 -0 -0 -0 -0 -0 -0 -0 -0 -0 -0 -0 -0 -0 -0
nan nan nan nan nan nan nan nan nan nan nan nan nan nan nan nan nan nan nan nan nan nan nan nan nan nan nan nan nan nan nan nan nan nan nan nan nan nan nan nan nan nan nan nan nan nan nan nan nan nan nan nan nan nan nan nan nan -0 -0 -0 -0 -0 -0 -0 -0 -0 -0 -0 -0 -0 -0 -0 -0 -0 -0 -0 -0 -0 -0 -0 -0 -0 -0 -0 -0 -0
nan nan nan nan nan nan nan nan nan nan nan nan nan nan nan nan nan nan nan nan nan nan nan nan nan nan nan nan nan nan nan nan nan nan nan nan nan nan nan nan nan nan nan nan nan nan nan nan nan nan nan nan nan nan nan nan nan -0 -0 -0 -0 -0 -0 -0 -0 -0 -0 -0 -0 -0 -0 -0 -0 -0 -0 -0 -0 -0 -0 -0 -0 -0 -0 -0 -0 -0
nan nan nan nan nan nan nan nan nan nan nan nan nan nan nan nan nan nan nan nan nan nan nan nan nan nan nan nan nan nan nan nan nan nan nan nan nan nan nan nan nan nan nan nan nan nan nan nan nan nan nan nan nan nan nan nan nan -0 -0 -0 -0 -0 -0 -0 -0 -0 -0 -0 -0 -0 -0 -0 -0 -0 -0 -0 -0 -0 -0 -0 -0 -0 -0 -0 -0 -0
nan nan nan nan nan nan nan nan nan nan nan nan nan nan nan nan nan nan nan nan nan nan nan nan nan nan nan nan nan nan nan nan nan nan nan nan nan nan nan nan nan nan nan nan nan nan nan nan nan nan nan nan nan nan nan nan nan -0 -0 -0 -0 -0 -0 -0 -0 -0 -0 -0 -0 -0 -0 -0 -0 -0 -0 -0 -0 -0 -0 -0 -0 -0 -0 -0 -0 -0
nan nan nan nan nan nan nan nan nan nan nan nan nan nan nan nan nan nan nan nan nan nan nan nan nan nan nan nan nan nan nan nan nan nan nan nan nan nan nan nan nan nan nan nan nan nan nan nan nan nan nan nan nan nan nan nan nan -0 -0 -0 -0 -0 -0 -0 -0 -0 -0 -0 -0 -0 -0 -0 -0 -0 -0 -0 -0 -0 -0 -0 -0 -0 -0 -0 -0 -0
nan nan nan nan nan nan nan nan nan nan nan nan nan nan nan nan nan nan nan nan nan nan nan nan nan nan nan nan nan nan nan nan nan nan nan nan nan nan nan nan nan nan nan nan nan nan nan nan nan nan nan nan nan nan nan nan nan -0 -0 -0 -0 -0 -0 -0 -0 -0 -0 -0 -0 -0 -0 -0 -0 -0 -0 -0 -0 -0 -0 -0 -0 -0 -0 -0 -0 -0
nan nan nan nan nan nan nan -1 -0 -0 nan nan nan nan nan nan nan nan nan nan nan nan nan nan nan -5 nan nan nan nan nan nan nan nan nan nan nan nan nan nan nan nan nan nan nan nan nan nan nan nan nan nan nan nan nan nan nan nan -0 -0 -0 -0 -0 -0 -0 -0 -0 -0 -0 -0 -0 -0 -0 -0 -0 -0 -0 -0 -0 -0 -0 -0 -0 -0 -0 -0
-2 nan -0 -0 -0 -0 -0 -0 -0 -0 -0 -19 nan nan nan nan nan nan nan nan nan nan nan nan nan nan nan nan nan nan nan nan nan nan nan nan nan nan nan nan nan nan nan nan nan nan nan nan nan nan nan nan nan nan nan nan nan nan nan nan nan nan nan -0 -0 -0 -0 -0 -0 -0 -0 -0 -0 -0 -0 -0 -0 -0 -0 -0 -0 -0 -0 -0 -0 -0
nan nan nan nan nan nan -0 -0 -0 -0 -0 -0 -0 -0 -19 nan nan nan -17 nan nan nan nan -6 -6 -4 nan nan nan nan nan nan nan nan nan nan nan nan nan nan nan nan nan nan nan nan nan nan nan nan nan nan nan nan nan nan nan nan nan nan nan nan nan nan nan -0 -0 -0 -0 -0 -0 -0 -0 -0 -0 -0 -0 -0 -0 -0 -0 -0 -0 -0 -0 -22
nan nan nan nan nan nan nan nan nan nan -0 -0 -0 -0 -18 nan nan nan nan nan nan nan -13 -5 -5 -4 -5 nan nan nan nan nan nan nan nan nan nan nan nan nan nan nan nan nan nan nan nan nan nan nan nan nan nan nan nan nan nan nan nan nan nan nan nan nan nan nan -0 -0 -0 -0 -0 -0 -0 -0 -0 -0 -0 -0 -0 -0 -0 -0 -0 -3 -3 nan
nan nan nan nan nan nan nan nan nan nan nan -0 -0 -0 -7 nan nan nan nan nan nan nan -6 -3 -3 -4 -6 nan nan nan nan nan nan nan nan nan nan nan nan nan nan nan nan nan nan nan nan nan nan nan nan nan nan nan nan nan nan nan nan nan nan nan nan nan nan nan -0 -0 -0 -0 -0 -0 -0 -0 -0 -0 -0 -0 -0 -0 -0 -0 -15 nan nan nan
nan nan nan nan nan nan nan nan nan nan nan nan -4 -4 nan nan nan nan nan nan nan nan -6 -4 -4 -5 -6 -7 nan nan nan nan nan nan nan nan nan nan nan nan nan nan nan nan nan nan nan nan nan nan nan nan nan nan nan nan nan nan nan nan nan nan nan nan nan nan -0 -0 -0 -0 -0 -0 -0 -0 -0 -0 -0 -0 -0 -0 -0 -0 nan nan nan nan
nan nan nan nan nan nan nan nan nan nan nan nan nan nan nan nan nan nan nan nan nan nan nan nan nan -12 -9 -6 nan nan nan nan nan nan nan nan nan nan nan nan nan nan nan -15 -15 nan nan nan nan nan nan nan nan nan nan nan nan nan nan nan nan nan nan nan nan nan nan -0 -0 -0 -0 -0 -0 -0 -0 -0 -0 -0 -0 -0 -0 -0 nan nan nan nan
nan nan nan nan nan nan nan nan nan nan nan nan nan nan nan nan nan nan nan nan nan nan nan nan nan nan -14 -12 -10 -10 -10 nan nan nan -17 nan nan nan nan nan nan nan nan nan nan nan nan nan nan nan nan nan nan nan nan nan nan nan nan nan nan nan nan nan nan nan nan nan nan nan -0 -0 -0 -0 -0 -0 -0 -0 -0 -0 -0 -0 -0 -13 -13 -15
nan nan nan nan nan nan nan nan nan nan nan nan nan nan nan nan nan nan nan nan nan nan nan nan nan nan nan -12 -9 -9 nan nan -9 -9 -11 nan nan nan nan nan nan nan nan nan nan nan nan nan nan nan nan nan nan nan nan nan nan nan nan nan nan nan nan nan nan nan nan nan nan nan nan nan nan nan nan -0 -0 -0 -0 -0 -0 -0 -0 -0 -0 -7
nan nan nan nan nan nan nan nan nan nan nan nan nan nan nan nan nan nan nan nan nan nan nan nan nan nan nan nan nan nan nan nan nan nan -12 nan nan nan nan nan nan nan nan nan nan nan nan nan nan nan nan nan nan nan nan nan nan nan nan nan nan nan nan nan nan nan nan nan nan nan nan nan nan nan nan nan -0 -0 -0 -0 -0 -0 -0 -0 -0 -0
nan nan nan nan nan nan nan nan nan nan nan nan nan nan nan nan nan nan nan nan nan nan nan nan nan nan nan nan nan nan nan nan nan nan -7 nan nan nan nan nan nan nan nan nan nan -6 nan nan nan -1 -0 nan nan nan nan nan nan nan nan nan nan nan nan nan nan nan nan nan nan nan nan nan nan nan nan nan -0 -0 -0 -0 -0 -0 -0 -0 -0 -0
nan nan nan nan nan nan nan nan nan nan nan nan nan nan nan nan nan nan nan nan nan nan nan nan nan nan nan nan nan nan nan nan nan nan nan nan nan nan nan nan nan -4 -6 -5 -5 -4 nan nan nan nan nan nan nan nan nan nan nan nan nan nan nan nan nan nan nan nan nan nan nan nan nan nan nan nan nan -0 -0 -0 -0 -0 -0 -0 -0 -0 -0 -0
nan nan nan nan nan nan nan nan nan nan nan nan nan nan nan nan nan nan nan nan nan nan nan nan nan nan nan nan nan nan nan nan nan nan nan nan nan nan nan nan nan -4 -5 -6 -6 -6 -4 nan nan nan nan nan nan nan nan nan nan nan nan nan nan nan nan nan nan nan nan nan nan nan nan nan nan nan nan nan nan nan nan nan nan nan -0 -0 -0 -0
nan nan nan nan nan nan nan nan nan nan nan nan nan nan nan nan nan nan nan nan nan nan nan nan nan nan nan nan nan nan nan nan nan nan nan nan nan nan nan -7 -7 -6 -8 -9 -9 -8 -5 nan nan nan nan nan nan nan nan nan nan nan nan nan nan nan nan nan nan nan nan nan nan nan nan nan nan nan nan nan nan nan nan nan nan nan nan nan nan nan
nan nan nan nan nan nan nan nan nan nan nan nan -15 -15 nan nan nan nan nan nan nan nan nan nan nan nan nan nan nan nan nan nan nan nan nan nan nan nan nan nan nan -7 -8 nan nan nan nan nan nan nan nan nan nan nan nan nan nan nan -2 nan nan nan nan nan nan nan nan nan nan nan nan nan nan nan nan nan nan nan nan nan nan nan nan nan nan nan
nan nan nan nan nan nan nan nan nan nan nan nan nan nan nan nan nan nan nan nan nan nan nan nan nan nan nan nan nan nan nan nan nan nan nan nan nan nan nan nan nan nan nan nan nan nan nan nan nan nan nan nan nan nan nan nan nan -0 -0 nan nan nan nan nan nan nan nan nan nan nan nan nan nan nan nan nan nan nan nan nan nan nan nan nan nan nan
nan nan nan nan nan nan nan nan nan nan -18 nan nan nan nan nan nan nan nan nan nan nan nan nan nan nan nan nan nan nan nan nan nan nan nan nan nan nan nan nan nan nan nan nan nan nan nan nan nan nan nan nan nan nan nan nan nan -1 -0 nan nan nan -5 nan nan nan nan nan nan nan nan nan nan nan nan nan nan nan nan nan nan nan nan nan nan nan
nan nan nan nan nan nan nan nan nan nan nan nan nan nan nan nan nan nan nan nan nan nan -13 nan nan nan nan nan nan nan nan nan nan nan nan nan nan nan nan nan nan nan nan nan nan nan nan nan nan nan nan nan nan nan nan nan nan nan nan -3 -3 -4 nan nan nan nan nan nan nan nan nan nan nan nan nan nan nan nan nan nan nan -5 -4 nan nan nan
nan nan nan nan nan nan nan nan nan nan nan nan nan nan nan nan nan nan nan nan nan -11 nan nan nan nan nan nan nan nan nan nan nan nan nan nan nan nan nan nan nan nan nan nan nan nan nan nan nan nan nan nan nan nan nan nan nan nan nan nan nan nan nan nan nan nan nan nan nan nan nan nan nan nan nan nan nan nan nan nan nan nan nan nan nan nan
nan nan nan -12 -12 -11 -16 -16 -8 -8 nan nan nan nan nan nan -15 -15 nan nan nan nan nan nan nan nan nan nan nan nan nan nan nan nan nan nan -18 -18 nan nan nan nan nan nan nan nan nan nan nan nan nan nan nan nan nan nan nan nan -3 -3 -3 -4 nan -9 -9 -11 nan nan nan nan nan nan nan nan nan nan nan nan nan nan nan nan nan nan nan nan
nan nan nan -10 -10 -17 -9 -10 -14 -14 nan nan nan nan nan nan nan nan nan nan nan nan nan nan nan nan nan nan nan nan nan nan nan nan nan nan nan nan nan nan nan nan nan nan nan nan nan nan nan nan nan nan nan nan nan nan nan nan nan -3 -3 nan nan -10 -10 nan nan nan nan nan nan nan nan nan nan nan nan nan nan nan nan nan nan nan nan nan
nan nan nan -19 -19 -18 -19 nan nan nan nan nan nan nan nan nan nan nan nan nan nan nan nan nan nan nan nan nan nan nan nan nan nan nan nan nan nan nan nan nan nan nan nan nan nan nan nan nan nan nan nan nan nan nan nan nan nan nan nan nan nan nan nan nan nan nan nan nan nan nan nan nan nan nan nan nan nan nan nan nan nan nan nan nan nan nan
nan nan nan nan nan nan nan nan nan nan nan nan nan nan nan nan nan nan nan nan nan nan -3 nan nan nan nan nan nan nan nan nan nan nan nan nan nan nan nan nan nan nan nan nan nan nan nan nan nan nan nan nan nan nan nan nan nan nan nan nan nan nan nan nan nan nan nan nan nan nan nan nan nan nan nan nan nan nan nan nan nan nan nan nan nan nan
-16 -13 -15 nan nan nan nan nan nan nan nan nan nan nan nan nan -0 -0 nan nan nan nan nan nan nan nan nan nan nan nan nan nan nan nan nan nan nan nan nan nan nan nan nan nan nan nan nan nan nan nan nan nan nan nan nan nan nan nan nan nan nan nan nan nan nan nan nan nan nan nan nan nan nan nan nan nan nan nan nan nan nan nan nan -24 -24 nan
nan nan nan nan nan nan nan nan nan nan nan nan nan nan nan nan nan nan nan nan nan nan nan nan nan nan nan nan nan nan nan nan nan nan nan nan nan nan nan nan nan nan nan nan nan nan nan nan nan nan nan nan nan nan nan nan nan nan nan nan nan nan nan nan nan nan nan nan nan nan nan nan nan nan nan nan -7 -7 -8 nan nan -13 nan nan nan nan
nan nan nan nan nan nan nan nan nan nan nan nan nan nan nan nan nan nan nan nan nan nan nan nan nan nan nan nan nan nan nan nan nan nan nan nan nan nan nan nan nan nan nan nan nan nan nan nan nan nan nan -0 nan nan nan nan nan nan nan nan nan nan nan nan nan nan nan nan nan nan nan nan nan nan nan nan -7 -7 -7 -9 -9 nan nan nan nan nan
Wind_Speed
2 2 3 5 5 5 4 5 6 5 4 3 2 2 1 2 2 2 3 3 3 2 2 2 3 4 6 10 12 13 13 12 12 11 11 11 11 11 11 11 10 10 10 10 10 10 11 11 11 11 11 11 11 11 11 11 11 11 11 11 11 11 11 11 11 11 12 12 12 12 12 11 11 12 12 12 12 12 12 13 13 13 14 14 14 15
2 2 2 4 5 4 4 5 6 6 5 4 3 3 2 1 1 1 2 3 3 3 3 3 4 5 7 9 11 12 12 11 11 10 11 10 10 10 10 10 10 10 10 10 10 11 11 11 11 11 11 11 11 11 11 11 11 10 10 10 10 11 11 11 11 11 11 11 12 12 12 12 12 12 12 12 13 13 13 13 13 14 14 14 15 15
1 1 1 3 3 4 3 4 4 5 5 4 4 3 3 2 2 2 2 3 3 4 4 4 5 6 7 8 9 10 10 9 10 10 10 10 10 10 10 10 10 10 10 10 11 11 11 11 11 11 11 11 11 11 10 10 10 10 10 10 10 10 11 11 11 11 11 12 12 12 12 12 12 12 12 13 13 13 14 14 14 14 14 14 15 15
1 1 1 1 2 2 2 2 3 3 3 3 3 3 3 3 2 2 2 2 3 3 4 5 5 5 5 5 6 7 8 9 9 10 10 10 10 10 9 10 10 10 11 11 11 11 11 11 11 11 10 10 10 10 10 10 10 10 10 10 10 10 11 11 11 11 11 12 12 12 12 12 12 12 13 13 13 14 14 14 14 14 14 14 15 15
1 1 1 1 1 1 1 2 2 2 2 2 2 2 2 2 2 2 2 2 3 3 4 4 4 4 3 3 4 5 7 8 9 9 9 9 9 9 9 10 10 11 11 12 12 11 11 11 11 10 10 10 10 10 10 10 9 9 10 10 10 10 10 11 11 11 11 11 12 12 12 12 12 13 13 13 13 14 14 14 14 14 14 15 15 15
1 1 1 1 1 1 1 2 2 2 2 1 1 1 1 1 2 2 2 2 3 3 3 3 3 3 2 2 3 4 6 7 8 8 8 8 8 9 10 10 11 12 12 12 12 12 11 11 10 10 10 10 10 10 9 9 9 9 9 10 10 10 10 10 11 11 11 11 12 12 12 12 12 12 13 13 13 13 14 14 14 14 15 15 15 15
1 1 1 1 1 1 1 1 2 2 1 1 1 1 1 1 1 2 2 2 2 2 2 2 1 1 0 1 2 3 4 5 5 6 6 7 8 9 10 11 11 12 12 12 11 11 11 10 10 10 10 9 9 9 9 9 9 9 9 10 10 10 11 11 11 11 11 12 12 12 12 12 12 12 13 13 13 13 14 14 14 14 15 15 15 15
2 1 1 1 1 1 1 1 1 2 2 1 1 1 2 2 2 2 2 2 2 1 1 1 1 0 1 1 1 2 2 2 2 3 4 5 7 8 9 10 11 11 11 11 11 10 10 10 10 9 9 9 9 9 9 9 9 10 10 10 11 11 11 11 11 12 12 12 12 12 12 12 12 12 13 13 13 13 13 14 14 14 15 15 15 15
2 2 1 1 1 1 1 1 1 1 2 1 2 2 2 2 2 2 2 2 1 1 0 1 1 1 1 1 1 1 1 1 1 2 3 3 4 5 8 9 9 10 10 10 10 10 9 9 9 9 9 9 10 10 10 10 10 10 11 11 11 11 11 11 12 12 12 12 12 12 12 12 12 12 12 12 13 13 13 13 14 14 14 15 15 15
2 2 2 1 1 1 1 0 0 1 1 1 2 2 2 2 2 2 2 2 1 0 1 0 0 1 2 2 2 1 1 2 3 4 5 5 6 7 7 8 8 8 9 9 9 9 10 10 10 10 10 10 11 11 11 11 11 11 11 11 11 11 11 12 12 12 12 12 12 12 12 12 12 12 12 12 12 13 13 13 13 14 14 15 15 16
2 2 2 1 1 1 1 0 0 0 1 1 1 2 2 2 2 2 3 2 2 1 1 1 0 0 1 2 2 2 2 2 3 4 5 6 7 8 8 8 7 7 8 8 9 9 10 11 11 11 11 11 12 12 11 11 11 11 11 11 12 12 12 12 12 12 12 12 12 12 12 12 12 12 12 12 12 13 13 13 14 14 14 15 16 16
2 1 1 1 1 0 1 1 0 0 1 1 1 2 2 2 2 2 3 2 1 1 1 1 1 1 1 1 1 2 2 1 2 2 3 4 5 5 5 5 5 6 6 7 8 9 10 11 11 11 11 11 12 12 12 11 11 12 12 12 12 12 12 12 12 12 12 12 12 12 12 12 12 12 12 13 13 13 13 14 14 14 15 15 16 17
1 1 1 0 0 0 1 0 0 0 1 2 2 3 3 1 1 1 2 2 1 0 1 1 2 2 1 1 1 1 1 1 1 1 1 2 2 2 2 2 2 3 3 4 4 6 8 10 10 11 11 11 12 12 12 12 12 12 12 12 12 12 12 12 12 12 12 12 12 12 12 12 12 13 13 13 13 14 14 14 15 15 16 16 17 17
1 1 0 0 0 1 1 1 1 1 2 2 2 2 1 1 1 1 1 1 0 1 1 1 2 2 2 1 1 0 0 1 1 1 1 2 2 1 1 1 2 2 2 2 3 4 6 7 7 8 10 10 11 11 12 12 12 13 12 12 12 12 12 12 12 12 12 12 12 12 13 13 13 13 13 14 14 14 15 15 15 16 16 16 17 17
0 0 0 1 1 1 1 1 1 1 2 1 0 1 1 1 1 1 2 1 1 1 2 1 2 2 3 2 1 0 1 0 1 1 2 2 2 1 1 1 2 2 2 2 3 4 6 5 4 5 6 8 9 10 11 12 12 12 12 12 12 12 12 12 12 12 12 12 12 12 13 13 13 13 14 14 14 15 15 15 16 16 16 17 17 17
1 0 1 1 1 1 1 1 1 1 1 0 1 1 1 1 1 1 2 1 1 1 2 2 2 2 3 2 1 0 1 1 1 1 2 2 2 1 1 1 2 2 2 2 3 3 4 4 4 5 5 8 10 12 13 12 12 12 12 12 12 12 12 12 12 12 12 12 12 12 13 13 13 13 14 14 14 15 15 15 16 16 16 17 17 17
1 1 1 1 1 1 1 1 0 1 0 0 1 1 1 1 1 1 2 2 1 1 1 1 1 1 2 3 2 1 1 1 0 1 2 3 2 2 1 1 2 3 3 3 3 3 3 4 4 4 5 8 11 13 13 13 12 12 12 12 12 12 12 12 12 12 12 12 12 13 13 13 13 14 14 14 15 15 15 16 16 16 17 17 17 17
1 1 1 1 1 1 1 1 1 1 0 1 1 1 1 1 1 1 1 2 2 1 1 1 1 1 1 2 2 1 1 1 0 2 3 3 3 2 1 1 2 3 3 3 3 3 3 4 4 4 6 10 12 13 13 13 12 12 12 12 12 12 12 12 12 12 12 12 13 13 13 13 14 14 14 15 15 15 15 16 16 16 17 17 17 17
1 1 1 1 1 1 1 1 1 0 0 0 1 1 1 1 1 1 1 1 2 2 2 1 1 1 1 2 3 2 1 1 0 2 3 4 3 2 1 1 1 2 3 3 3 3 4 4 5 7 9 11 12 13 13 13 13 13 13 13 13 13 13 13 12 12 12 13 13 13 13 14 14 14 14 14 15 15 15 16 16 16 17 17 17 17
1 1 1 1 1 0 1 1 1 1 1 1 1 2 1 1 1 1 1 1 1 2 2 2 1 1 2 2 3 2 1 0 1 2 3 4 3 2 1 1 2 2 3 3 3 3 3 3 5 7 9 11 12 13 13 13 14 14 13 13 13 13 13 13 13 13 13 13 13 13 13 13 14 14 14 14 14 15 15 16 16 17 17 17 18 18
1 1 2 2 2 1 0 1 2 2 2 2 2 2 1 1 1 0 0 0 1 1 1 1 1 2 2 2 2 2 1 0 1 2 3 3 3 2 1 1 1 2 3 3 3 3 3 3 3 4 6 10 12 13 14 14 14 14 14 14 13 13 13 13 13 12 12 13 13 13 13 13 13 13 14 14 15 15 16 16 17 17 17 18 18 18
1 1 2 2 2 2 1 2 3 3 3 3 3 2 1 1 1 1 1 1 1 1 1 2 2 3 2 2 3 2 1 1 0 1 2 2 3 3 2 1 1 1 2 3 3 2 2 2 3 4 7 10 13 14 15 15 14 14 14 13 13 13 12 12 12 12 12 12 13 13 13 13 13 14 14 15 15 16 16 16 17 17 17 18 18 18
2 1 2 2 3 2 2 2 2 2 3 3 3 3 3 3 2 2 2 3 3 2 3 3 2 2 1 2 2 2 1 1 2 1 1 2 3 3 2 1 0 1 2 3 3 2 2 2 3 4 7 11 13 14 15 15 14 14 13 13 12 12 12 12 12 12 12 12 12 13 13 14 14 14 15 15 16 16 16 16 16 17 17 17 17 18
2 2 2 3 3 3 2 2 2 2 3 3 3 3 3 3 3 3 2 3 3 2 2 1 1 1 1 2 2 2 2 1 2 2 1 2 3 3 2 1 1 2 3 3 2 2 3 3 3 4 5 10 13 14 14 14 13 13 12 12 11 11 11 11 11 11 12 12 13 13 14 14 15 15 15 15 15 16 16 16 16 16 17 17 17 17
2 2 2 2 3 3 3 3 2 2 3 3 2 2 2 1 1 1 2 2 2 1 0 1 2 3 2 2 2 2 2 0 2 2 1 2 2 3 2 1 1 2 4 3 2 2 3 4 4 4 4 7 10 13 13 13 12 11 11 10 10 10 10 11 11 12 12 13 14 14 15 15 15 15 15 15 15 15 16 16 16 16 16 17 17 17
2 1 1 2 3 4 5 6 7 5 3 2 2 2 2 1 1 1 1 0 0 1 2 2 3 3 3 2 2 2 2 1 1 2 2 1 2 3 2 1 1 2 4 3 3 3 4 4 4 4 4 5 7 10 11 11 10 9 9 9 9 10 11 11 12 13 14 15 15 15 15 15 15 15 15 15 15 15 15 16 16 16 16 17 17 16
7 7 8 8 9 10 10 11 11 11 10 7 5 3 2 1 1 0 1 1 1 1 2 2 3 3 3 2 2 2 2 1 1 2 2 1 1 2 2 1 1 2 3 4 4 4 5 5 5 4 4 3 4 5 8 8 8 8 8 9 10 11 12 13 14 15 15 15 15 15 15 15 15 15 15 15 15 15 16 16 16 16 16 15 14 13
9 9 10 10 11 11 11 11 11 11 11 11 10 8 4 1 1 1 2 1 1 1 2 3 3 3 3 3 2 2 2 2 1 1 2 1 1 2 2 2 1 2 3 4 4 5 6 5 4 4 3 2 2 3 4 6 7 8 9 11 12 13 14 15 15 15 15 15 16 15 15 15 15 15 15 15 16 16 16 16 16 16 15 12 9 7
8 8 8 8 9 9 9 9 9 10 10 10 10 9 6 2 1 2 2 1 1 1 2 3 3 3 3 3 3 3 2 2 1 1 2 1 1 2 2 1 1 2 2 4 4 4 3 3 3 2 2 2 2 2 3 4 5 7 9 11 13 14 14 15 15 15 15 15 16 16 16 16 16 16 16 16 16 16 16 16 16 14 10 8 6 5
5 5 5 6 6 6 6 6 6 8 9 9 9 8 6 2 1 2 2 1 1 2 3 3 3 3 3 3 3 3 2 2 1 1 2 1 1 2 1 2 2 2 2 3 4 3 3 2 2 1 1 2 2 2 2 3 3 4 5 8 10 11 13 14 14 15 15 15 16 16 16 16 16 16 16 16 16 16 16 16 15 11 6 5 5 5
3 3 3 3 3 3 3 3 4 5 7 7 7 6 5 2 1 2 2 2 2 2 3 3 3 3 3 2 2 2 2 2 2 1 2 1 1 2 1 2 2 2 1 2 3 4 3 2 2 1 1 2 2 2 3 3 3 3 3 4 5 7 10 12 13 13 14 15 15 16 16 16 16 16 16 16 16 16 16 16 14 11 6 5 4 5
2 2 2 2 2 3 3 3 3 3 4 4 4 4 4 3 2 2 2 2 3 3 3 3 3 3 3 3 3 3 2 2 2 2 2 1 1 2 1 2 2 2 1 1 2 3 3 3 3 2 2 3 3 3 3 3 3 3 3 3 3 5 8 10 11 11 12 13 14 15 16 16 16 16 16 16 16 16 16 17 15 11 6 5 5 5
1 2 2 2 3 3 3 3 3 3 3 3 3 3 3 3 3 3 3 3 3 3 3 3 3 3 3 3 4 4 3 2 2 3 2 1 1 2 1 2 2 2 2 2 2 3 3 4 4 4 4 3 3 3 3 3 3 3 3 3 3 4 6 7 7 8 9 10 11 12 14 15 15 16 16 16 16 16 16 16 15 13 9 6 6 6
2 2 2 3 3 3 3 3 3 3 3 3 3 3 3 2 2 2 3 3 3 3 2 3 3 3 3 3 3 4 3 3 3 4 3 2 1 2 2 2 2 3 3 2 3 3 4 4 5 5 5 4 3 3 3 3 3 3 2 2 3 3 4 5 5 6 7 7 7 7 9 10 11 13 14 14 15 15 15 16 16 15 14 10 8 7
2 2 2 3 3 3 4 4 3 3 3 3 3 3 3 2 2 1 1 1 1 1 1 2 2 2 2 3 3 4 4 2 3 3 3 2 1 2 2 2 2 3 3 3 3 3 3 5 6 6 6 6 5 3 2 3 3 2 2 3 3 4 4 4 4 5 6 6 6 5 5 6 7 8 9 11 13 14 15 16 16 17 17 15 12 10
2 2 2 2 3 3 3 4 4 4 3 3 2 2 2 2 1 1 0 0 0 0 0 1 1 2 2 2 3 3 4 3 3 3 4 2 2 2 2 3 3 3 3 3 3 3 3 5 6 7 7 7 6 5 3 2 2 2 3 3 4 4 4 4 4 4 5 5 5 5 5 5 5 6 7 10 13 14 16 16 17 17 17 17 16 14
2 2 2 2 2 2 3 3 3 3 3 2 2 2 2 2 1 1 1 0 0 0 1 2 2 2 3 3 3 3 3 3 3 4 4 3 2 2 3 3 3 3 3 4 4 4 4 5 6 6 6 6 6 5 5 4 4 4 4 4 4 4 5 5 5 5 4 5 6 5 5 5 5 6 7 10 12 13 14 15 16 16 17 17 17 17
1 2 2 2 2 2 2 2 2 2 2 2 2 2 2 2 2 2 1 1 1 1 2 2 3 3 5 5 4 4 4 4 4 4 4 3 3 3 4 4 4 4 4 4 4 4 4 5 6 6 5 5 6 6 6 6 5 5 5 5 5 5 5 5 5 4 4 5 6 6 7 6 5 5 6 7 7 7 8 8 10 12 14 14 16 17
1 2 2 2 2 2 2 2 2 3 3 3 2 2 2 2 2 2 1 1 1 2 2 3 3 3 4 5 5 5 5 5 4 4 4 4 3 3 4 4 4 5 4 4 4 4 5 5 5 5 5 5 6 6 6 6 6 6 7 6 6 5 4 4 4 4 4 5 6 7 7 6 5 5 5 5 5 5 5 5 6 8 8 7 9 12
2 2 2 3 2 2 3 3 3 3 3 3 3 3 3 2 2 2 2 2 2 2 3 3 3 3 4 4 5 5 5 4 4 4 4 3 3 4 4 4 5 5 5 4 4 5 5 5 6 6 6 6 6 6 6 6 6 7 8 7 6 5 4 4 4 4 4 5 5 6 6 5 5 5 5 5 5 5 5 4 5 6 6 5 5 6
2 2 3 3 3 3 3 3 3 3 2 2 2 2 2 3 3 3 2 3 3 3 3 3 3 3 4 4 4 4 5 5 5 5 4 5 5 5 5 5 5 5 4 5 5 5 5 6 6 7 7 7 7 8 8 8 8 9 9 8 7 7 7 7 6 6 5 5 5 5 5 6 6 6 6 6 6 5 5 5 5 6 6 5 4 5
2 3 3 3 3 3 3 3 3 3 2 2 2 2 2 2 2 3 3 3 3 2 2 2 3 3 4 4 4 4 4 5 5 6 6 7 7 6 6 5 5 4 4 5 5 5 6 6 7 7 7 7 7 7 8 8 8 8 8 8 9 9 9 8 6 5 4 4 4 4 6 6 5 5 6 6 6 6 6 6 7 8 8 6 5 5
2 3 3 3 3 3 3 3 3 3 2 2 2 2 2 2 2 3 3 3 3 3 3 3 3 3 4 4 4 4 3 4 5 6 6 6 6 6 6 6 5 5 4 4 5 5 6 7 7 7 7 6 7 8 9 8 8 8 8 8 8 8 6 6 5 4 4 5 6 6 5 5 5 6 6 6 6 6 6 7 9 10 10 7 6 6
3 3 3 3 2 2 2 2 2 2 2 2 2 3 2 3 3 3 3 3 3 3 3 3 3 3 4 4 4 4 3 3 4 5 5 6 6 6 6 6 6 5 5 4 4 5 5 6 7 7 6 6 7 8 8 8 8 8 8 8 8 8 7 6 6 6 6 7 6 6 5 5 6 6 6 7 6 6 6 7 7 8 9 8 8 7
2 2 2 3 2 2 2 2 2 2 2 2 3 3 3 3 3 3 3 3 3 3 3 3 3 3 4 4 4 4 3 3 3 3 4 6 7 8 7 6 6 6 6 5 5 5 5 6 6 6 5 6 7 8 9 9 9 9 9 9 9 9 9 8 8 8 8 7 7 6 5 5 5 6 7 7 7 7 7 7 8 8 7 7 7 8
2 2 2 2 2 2 3 2 2 2 2 3 3 3 3 3 3 3 3 3 3 3 3 3 3 3 4 4 4 4 4 3 3 3 3 3 4 5 5 6 6 5 5 6 6 6 6 6 6 6 6 7 8 8 9 9 9 9 9 9 8 8 9 8 8 8 8 8 8 7 5 5 5 6 8 8 9 8 8 8 8 8 7 7 8 8
2 2 2 2 2 2 2 2 2 2 3 3 3 3 3 3 3 3 3 3 3 3 3 3 3 3 4 4 4 4 5 5 4 4 3 3 3 4 4 5 5 6 6 6 6 7 7 7 7 7 7 8 8 9 9 8 8 9 9 8 8 8 8 8 8 7 7 8 8 7 5 5 6 7 8 9 9 8 8 8 8 7 7 7 8 8
3 3 2 2 2 2 2 2 2 3 3 3 3 3 3 3 3 4 3 3 3 3 4 3 3 4 5 5 4 5 5 5 5 4 4 3 3 3 4 4 4 5 6 6 7 8 8 8 9 9 8 9 9 9 9 9 8 8 8 8 8 8 9 8 8 7 7 7 7 6 5 6 7 8 9 9 9 9 9 8 8 7 7 7 7 7
2 2 2 2 2 2 3 3 3 3 4 4 4 3 3 4 5 5 4 3 3 3 3 4 4 5 5 5 5 5 6 5 5 5 4 4 3 3 3 3 3 3 4 5 6 6 7 8 10 10 10 10 10 10 10 9 9 8 8 8 8 8 8 8 8 8 7 7 7 6 5 6 7 7 8 9 10 10 10 9 8 8 7 7 7 7
2 2 2 2 3 3 3 3 3 4 4 4 4 4 3 3 3 3 3 3 3 3 4 4 5 5 5 5 5 5 5 5 5 5 4 3 3 3 3 3 3 3 4 4 4 4 4 5 7 9 12 13 12 11 10 10 9 8 8 8 7 7 8 8 8 8 7 8 7 6 6 6 6 6 6 8 10 11 11 10 9 8 6 5 5 6
3 3 2 2 3 3 3 3 4 4 5 5 5 5 4 3 3 3 3 3 4 4 4 4 5 5 6 6 6 6 6 6 6 5 5 3 3 3 3 3 3 3 4 4 4 4 3 4 4 5 8 12 14 13 10 9 8 8 8 7 7 6 7 7 7 7 7 7 7 6 6 6 6 6 6 7 8 10 10 10 9 8 6 5 5 6
Wind_Direction
101 126 142 149 152 158 170 168 166 166 171 172 177 189 214 195 177 170 185 194 203 214 228 233 240 247 253 254 255 257 259 263 268 271 274 277 278 279 280 282 282 283 283 282 281 279 278 277 276 275 274 274 275 275 276 278 279 281 282 283 284 285 285 285 286 287 287 288 289 290 291 292 293 293 293 293 292 292 291 289 288 287 286 285 284 283
79 105 135 154 161 167 176 174 173 173 175 174 175 176 179 188 183 180 191 206 213 218 224 232 235 237 239 244 249 253 258 265 271 275 278 279 280 281 283 284 285 286 286 285 284 282 280 278 277 276 275 275 275 276 276 277 278 280 281 282 283 284 284 285 286 286 287 287 288 289 289 290 290 289 289 288 287 286 285 283 283 282 282 282 281 281
89 107 136 163 173 179 181 178 176 174 171 172 172 171 168 181 193 203 207 217 220 222 224 228 230 232 231 235 244 252 261 270 276 279 281 282 283 284 286 288 290 291 292 291 289 287 285 283 281 280 279 279 278 278 278 279 279 280 280 280 281 281 281 282 282 283 283 283 284 284 284 284 284 284 283 282 282 281 281 281 281 281 281 281 281 281
104 123 148 163 179 186 177 167 164 164 161 162 163 165 164 181 198 210 212 218 224 228 229 228 228 226 225 227 238 251 265 275 279 281 282 283 286 288 292 295 297 298 299 297 295 292 290 287 286 285 284 283 282 282 281 281 281 280 280 279 279 278 277 277 277 277 277 278 278 278 278 278 278 278 278 278 279 280 280 280 281 281 282 282 282 282
109 130 140 143 151 148 117 121 131 140 143 145 152 161 170 191 208 219 225 228 231 232 233 227 222 217 214 218 237 255 270 278 281 283 284 287 291 295 299 301 302 302 301 299 296 294 291 289 288 287 286 285 284 283 282 282 282 281 281 281 280 280 278 278 278 278 276 276 275 274 275 274 275 276 277 278 279 280 281 282 282 282 283 282 283 283
117 120 121 120 117 111 98 106 118 124 119 123 140 164 189 208 223 231 235 235 235 235 233 224 214 208 207 220 251 268 277 284 287 290 293 296 299 302 304 304 304 302 300 297 294 292 289 288 286 286 285 284 283 283 282 282 284 285 287 288 289 290 289 288 287 285 283 281 279 278 277 277 277 277 278 279 280 281 282 282 282 283 282 282 283 283
115 102 94 88 89 94 100 118 133 136 125 127 148 180 207 221 230 234 236 238 241 244 248 245 227 195 181 272 289 291 292 299 306 309 309 309 308 307 306 304 302 299 296 293 291 289 288 286 286 286 285 284 285 285 286 288 291 294 296 297 298 298 297 295 293 290 288 286 284 282 281 279 279 278 278 279 279 280 281 281 281 282 282 282 282 283
113 100 80 72 72 78 89 116 143 155 150 151 167 189 211 223 229 233 236 243 251 260 267 277 292 359 40 3 337 322 313 321 327 325 318 313 310 307 305 302 300 298 295 293 291 291 291 292 292 293 292 293 294 295 296 298 301 303 304 303 302 300 297 295 292 290 288 286 284 282 281 279 278 278 278 278 278 279 279 280 280 281 282 282 282 283
100 97 81 68 68 73 82 101 155 166 166 170 180 194 207 220 230 237 240 245 253 269 265 289 313 334 350 340 334 327 309 292 302 308 309 306 304 303 302 302 301 300 299 299 300 302 303 305 306 306 306 305 305 305 305 306 306 306 305 302 300 297 294 291 289 287 286 284 283 281 279 278 277 277 277 277 277 277 278 278 279 280 281 281 282 282
69 73 72 56 49 51 70 130 204 196 180 191 196 202 203 215 225 236 246 249 260 351 50 47 351 317 322 325 327 328 326 312 310 312 315 314 310 308 306 307 308 308 309 311 314 316 318 318 317 316 313 311 309 308 307 307 306 304 302 299 296 293 290 288 286 284 283 282 281 280 278 277 277 276 276 276 276 276 276 277 277 278 279 280 280 281
50 51 56 47 31 18 359 291 254 204 166 194 212 227 228 221 220 223 237 250 271 333 19 20 15 307 316 322 328 337 349 332 323 321 322 317 314 312 311 313 315 318 320 323 325 326 325 322 319 316 313 311 309 308 306 305 303 301 298 295 292 290 287 285 283 282 280 280 279 278 277 276 276 275 275 275 275 275 275 275 276 276 277 277 278 279
46 42 47 48 36 354 306 300 330 83 130 173 212 241 251 245 219 204 215 230 247 299 349 340 325 292 252 288 313 332 351 336 323 318 321 316 314 314 314 317 321 325 328 329 328 326 323 320 317 315 312 311 309 307 306 304 301 299 296 292 289 287 284 282 281 279 278 278 277 277 276 275 275 274 274 274 274 274 274 274 274 275 275 275 276 277
42 45 49 50 265 237 237 230 161 128 151 180 204 224 237 240 197 168 185 196 199 215 349 337 324 307 272 250 261 300 330 310 302 302 312 307 306 309 316 318 319 322 328 328 324 319 317 316 314 312 310 308 306 305 303 301 298 296 292 289 286 283 281 280 278 277 277 276 276 276 275 274 274 274 274 274 274 275 275 274 274 274 273 274 274 275
30 33 45 312 256 241 226 192 180 187 196 198 202 205 204 144 97 102 124 123 85 31 33 7 331 309 294 277 255 214 242 298 311 316 312 291 282 276 288 298 297 300 313 315 309 304 305 310 310 308 305 303 302 301 298 296 294 291 288 285 282 280 279 278 277 277 277 277 276 276 275 275 276 276 276 276 276 276 276 276 276 275 275 275 275 275
312 309 300 274 270 261 245 210 201 208 216 216 187 98 77 65 70 86 108 109 47 13 31 18 341 313 299 290 282 113 99 28 343 327 311 291 277 255 215 290 294 295 301 301 296 293 297 300 297 292 292 291 290 289 289 288 287 285 284 282 281 280 280 279 279 279 279 279 278 278 277 278 278 279 279 279 279 279 279 279 279 279 279 279 278 278
203 199 230 248 259 263 256 232 224 231 243 303 35 72 96 95 92 100 115 126 110 47 49 36 2 330 310 305 310 70 87 59 14 318 306 293 283 261 163 285 297 295 292 288 285 285 290 286 280 275 276 280 282 284 285 285 285 284 283 283 283 283 283 283 282 282 282 282 282 281 281 282 282 283 283 283 283 284 283 283 283 283 282 282 281 281
185 185 197 218 243 260 272 275 260 256 286 353 26 59 97 123 127 121 117 125 112 84 70 78 53 336 312 314 320 359 88 70 17 305 297 290 283 266 173 214 277 285 286 281 278 276 279 277 274 272 271 275 279 283 285 285 285 285 286 286 286 286 286 286 286 286 286 285 286 286 286 286 287 287 287 288 287 287 287 286 285 284 283 283 282 281
175 177 171 199 230 256 289 307 312 316 346 22 41 44 46 56 82 105 118 123 118 108 100 105 140 180 221 294 295 293 104 92 351 301 296 288 282 270 206 202 248 270 278 276 273 269 266 266 265 266 269 277 281 284 287 288 288 288 288 288 288 288 288 288 288 288 288 288 288 289 289 290 290 290 290 289 288 288 287 286 285 284 284 283 282 282
189 185 177 202 225 257 293 292 285 269 219 163 117 89 55 28 38 69 102 123 131 134 136 139 169 198 186 239 262 266 162 129 320 304 298 291 286 279 248 222 247 264 269 269 267 264 260 260 263 267 272 280 284 287 290 290 290 289 289 289 289 289 289 289 289 289 289 289 290 290 290 290 289 288 288 288 287 287 288 288 287 287 286 286 285 284
177 197 200 192 189 212 313 277 247 218 192 170 138 114 102 67 46 52 79 108 126 131 133 142 183 220 216 239 257 265 218 108 343 309 292 287 283 277 258 225 243 259 266 265 261 258 255 258 265 272 278 282 285 289 290 290 290 290 290 290 290 290 290 289 289 289 290 290 290 290 290 289 288 288 288 289 290 291 290 291 290 289 289 288 287 286
153 214 219 185 156 132 309 256 237 215 181 148 120 103 105 96 68 48 183 117 107 106 110 146 206 220 215 233 252 261 237 30 331 306 290 284 279 271 249 214 226 248 263 263 259 254 253 257 261 267 273 282 286 288 290 290 291 291 291 291 290 290 290 289 289 290 290 291 291 290 289 289 290 290 291 292 292 292 292 291 290 290 289 288 287 286
137 208 226 191 168 160 187 227 227 210 171 143 129 125 148 145 165 218 209 173 162 167 180 205 215 216 207 226 245 249 209 151 192 261 282 284 280 274 257 213 205 239 259 262 262 260 256 258 259 264 270 281 286 289 291 291 291 291 291 290 290 290 290 290 290 291 291 291 291 291 291 292 293 294 294 294 294 293 292 290 290 289 288 287 286 285
138 178 213 201 194 192 200 215 219 206 176 163 161 166 174 170 179 190 189 181 181 188 198 211 220 225 224 243 258 263 232 174 160 163 225 269 275 275 266 217 214 260 265 266 270 273 273 266 262 265 273 282 286 288 290 290 291 291 291 291 291 291 291 292 292 293 293 294 295 296 296 297 297 297 296 295 293 292 291 290 289 288 287 287 286 285
150 175 197 203 205 206 206 213 216 209 192 191 190 188 183 179 178 177 172 170 170 173 185 209 256 281 285 282 287 288 270 177 139 132 163 250 264 269 271 272 289 286 279 273 273 278 284 278 270 266 270 279 283 285 288 289 290 291 292 292 293 293 294 295 296 297 298 299 300 300 300 299 298 297 296 294 293 292 291 290 289 288 288 287 287 286
157 175 200 210 216 220 225 239 242 227 195 203 210 214 205 193 168 138 125 133 142 151 174 296 298 294 293 292 292 288 277 189 134 137 163 244 266 273 274 273 287 290 288 286 286 288 291 287 280 273 269 273 278 282 286 289 291 293 294 296 297 299 300 301 302 303 303 302 302 301 300 299 297 296 295 294 293 292 291 291 290 289 289 289 288 288
76 62 9 337 322 319 324 321 322 320 293 238 214 208 204 188 139 80 60 148 204 243 274 283 285 284 286 286 280 276 274 262 156 152 162 223 273 283 283 276 277 287 294 298 301 301 296 291 285 277 269 269 275 281 286 291 296 300 302 304 305 306 307 306 306 305 304 303 302 301 299 298 297 296 295 295 294 293 293 292 292 291 291 291 290 289
25 16 10 3 357 352 349 344 338 330 322 312 293 262 223 172 151 221 264 246 239 250 271 279 282 285 287 282 273 266 267 265 207 170 159 190 267 280 281 284 294 301 303 304 304 299 293 287 282 275 270 267 275 285 292 300 307 312 315 313 312 310 309 307 305 304 303 302 301 300 299 298 297 297 296 295 295 295 294 294 294 293 293 292 292 291
18 13 9 4 0 356 352 346 339 332 324 317 309 301 293 272 239 266 267 259 252 260 269 275 280 284 285 282 276 270 266 259 230 182 150 145 252 269 275 295 315 321 314 308 301 292 284 276 271 267 268 275 288 302 306 315 321 323 321 316 312 309 306 304 303 302 301 300 299 299 298 298 297 297 297 296 296 296 295 295 295 295 294 294 293 292
15 12 9 4 0 357 353 347 339 331 324 318 311 307 308 307 280 267 266 258 249 255 264 268 272 276 280 285 284 280 275 264 241 166 128 113 248 267 276 312 329 328 322 311 303 292 274 264 259 258 266 286 300 306 305 320 324 322 316 310 307 304 302 301 300 299 299 298 298 298 297 297 297 297 297 297 296 296 296 296 296 295 294 293 290 287
8 7 4 359 357 355 350 341 331 326 323 321 317 314 316 314 280 255 254 238 236 249 262 266 268 270 275 284 288 286 279 268 250 157 112 104 267 274 288 315 317 315 326 318 312 304 291 276 266 260 269 291 295 296 295 306 306 304 302 300 298 296 295 296 296 296 297 297 297 297 296 296 296 296 296 296 296 296 296 296 296 295 291 287 283 280
349 350 342 338 339 340 336 326 320 318 319 319 318 317 316 308 265 237 237 229 229 238 253 259 262 262 264 275 281 282 280 270 245 187 123 127 256 270 281 301 295 286 287 322 319 312 307 297 285 272 277 293 295 292 288 285 282 279 276 281 283 285 287 290 292 294 295 295 295 295 295 295 295 295 296 296 296 295 295 295 295 294 288 283 279 276
325 328 321 316 318 321 322 319 316 312 311 311 309 306 298 283 252 222 215 215 217 224 236 245 251 253 253 256 262 267 273 270 233 203 169 208 260 271 271 287 290 287 276 301 302 299 300 298 295 292 295 296 294 289 283 277 272 267 266 267 269 276 282 286 290 292 293 294 294 294 293 294 294 294 294 294 294 294 294 294 293 292 287 281 275 273
323 322 318 319 321 320 318 316 312 308 304 300 296 292 290 279 258 233 214 208 208 213 220 232 240 247 250 252 255 259 264 265 250 240 242 255 276 286 288 293 295 297 299 289 276 270 275 286 293 298 298 293 288 284 282 277 271 265 260 263 265 272 279 284 287 289 289 290 290 290 290 291 291 291 291 291 292 292 292 291 290 288 285 280 275 273
339 333 328 328 327 323 319 316 311 306 302 297 293 290 286 276 260 241 220 209 207 208 213 223 234 245 253 255 258 259 261 260 265 270 277 278 281 287 293 291 292 294 296 287 276 270 270 280 290 297 300 296 291 283 280 275 272 266 252 252 260 269 276 279 280 281 281 282 283 283 284 285 285 285 287 287 288 288 288 288 287 286 285 282 280 279
345 336 331 330 327 323 319 317 313 309 304 297 292 288 288 282 271 249 224 205 198 199 205 216 226 236 246 258 264 267 269 268 278 287 291 284 280 283 287 282 284 287 288 283 280 280 280 284 290 295 300 301 299 291 275 265 263 262 253 249 254 262 268 270 272 275 277 277 276 274 272 272 273 276 278 280 281 283 284 285 286 286 286 285 285 284
345 331 322 319 316 313 311 308 308 305 302 293 286 285 294 304 315 330 354 24 57 157 218 224 227 225 227 241 256 266 274 281 295 300 297 288 279 276 278 275 276 278 277 277 277 278 282 286 289 292 294 297 298 298 292 278 271 272 273 266 265 265 266 264 264 266 272 274 273 271 267 265 264 264 267 274 278 281 283 285 287 287 287 287 286 284
335 314 302 298 294 293 295 295 295 295 295 293 293 298 306 308 313 317 322 325 320 292 278 266 260 254 251 244 244 252 263 272 281 285 284 276 267 262 267 271 271 269 266 271 275 278 281 285 287 288 287 288 292 298 303 304 300 294 288 283 279 276 273 267 262 260 263 266 268 269 268 266 265 265 267 274 278 282 285 286 287 287 286 285 284 283
315 297 286 279 271 267 272 274 274 275 280 290 296 296 287 271 266 265 262 248 239 243 259 266 270 272 271 268 260 251 249 251 253 254 255 251 248 251 260 268 267 264 258 261 267 272 276 280 284 286 285 283 284 288 296 302 304 301 297 292 286 280 275 269 262 257 257 262 268 271 273 273 273 273 273 276 279 281 282 281 281 281 282 282 282 282
282 275 272 265 256 247 245 252 254 256 258 270 282 289 282 266 258 254 249 242 243 244 250 257 262 266 265 264 263 261 259 251 243 238 237 236 238 245 254 261 263 262 257 254 256 260 264 269 274 279 284 286 287 288 291 294 296 298 300 298 293 283 273 270 267 265 263 267 274 278 279 278 277 275 274 274 273 272 273 273 273 274 276 278 281 281
255 256 260 257 250 244 246 255 257 256 258 273 294 309 314 314 314 313 309 301 291 282 273 270 270 272 272 273 273 274 274 265 255 246 238 235 235 239 245 252 256 259 258 254 251 252 255 261 266 271 274 280 285 289 290 289 290 293 298 299 297 293 289 286 281 277 273 270 271 274 276 275 272 270 269 267 265 264 265 268 271 272 272 272 276 280
244 251 256 260 259 257 254 262 265 268 277 302 327 336 329 326 322 319 315 306 298 292 288 289 288 288 287 281 275 270 267 264 259 253 246 240 238 238 240 244 248 253 256 255 253 252 253 259 265 268 270 274 278 281 282 283 285 288 291 290 290 292 294 291 287 281 274 268 264 264 269 273 274 273 271 270 268 263 261 264 268 271 272 265 263 266
248 250 253 257 259 260 260 266 275 286 307 332 338 330 324 320 315 309 302 299 295 291 289 287 288 288 286 278 269 260 254 253 251 248 245 240 237 236 238 240 243 246 250 254 256 255 253 256 261 264 267 270 274 277 278 278 280 280 280 281 286 290 291 286 282 278 278 274 270 267 268 273 276 277 277 276 273 270 265 263 265 267 269 266 260 256
246 247 250 252 253 258 267 280 293 308 333 340 331 320 315 308 301 296 294 293 291 288 287 282 280 282 284 284 280 272 260 252 247 244 243 239 236 235 235 237 239 240 242 250 255 257 256 255 256 259 261 264 268 271 275 278 277 276 273 275 281 286 287 285 284 283 280 280 279 277 275 275 276 276 276 276 274 272 269 266 266 265 265 265 261 256
241 249 253 256 260 265 280 291 303 311 318 312 306 300 294 286 281 280 281 280 279 280 279 277 277 279 282 284 285 283 273 261 250 245 244 239 234 231 232 233 234 234 231 238 248 257 261 258 257 256 258 260 263 266 270 273 275 275 272 272 271 271 272 280 287 288 285 281 279 277 274 275 276 278 277 276 274 272 269 266 263 261 259 258 257 256
241 253 260 270 277 282 283 286 294 299 300 297 291 285 281 274 273 272 270 273 275 277 277 279 282 282 281 284 287 289 286 279 269 260 256 250 246 242 236 232 231 232 230 234 239 247 256 260 262 262 262 260 260 262 265 270 272 274 273 272 270 268 267 273 278 281 281 280 278 276 270 271 275 278 278 276 274 272 268 265 264 262 258 254 253 253
250 258 267 275 281 284 285 289 294 296 293 287 282 279 276 270 268 268 269 270 273 275 274 273 274 277 282 287 292 295 294 291 285 276 268 258 251 245 240 237 235 235 235 238 240 242 247 253 260 265 268 266 262 260 260 264 268 272 273 273 272 272 271 272 272 273 275 277 277 276 273 272 273 275 276 276 275 273 268 264 261 259 258 255 253 252
260 267 271 273 274 274 278 285 290 290 287 283 279 276 274 271 270 270 270 267 268 270 272 269 268 270 276 283 288 291 291 290 287 282 272 261 252 248 245 243 241 240 240 243 244 245 246 248 251 256 262 266 267 265 262 261 263 266 270 272 272 272 272 271 271 271 272 272 273 274 274 274 273 272 272 274 274 274 272 268 263 260 258 257 255 254
263 269 271 271 273 276 279 282 283 284 284 281 278 275 272 272 273 274 273 266 268 273 278 277 275 274 275 276 277 279 281 284 285 284 279 271 262 254 248 247 246 244 245 246 248 248 248 246 245 245 249 256 262 266 267 263 262 262 266 269 270 270 270 271 271 270 269 267 266 265 265 267 269 271 274 275 276 275 275 272 269 264 261 259 259 258
272 272 273 275 275 276 278 280 280 281 281 280 279 277 272 274 278 281 281 277 275 274 275 274 274 274 274 273 273 274 275 277 279 280 278 274 270 265 258 254 253 254 255 252 251 251 250 247 242 239 237 242 249 258 264 264 262 261 263 263 264 266 268 270 271 270 269 267 263 259 256 259 261 265 270 274 275 276 277 275 272 268 264 262 261 261
295 286 283 283 281 280 281 283 283 283 283 283 283 283 279 274 272 272 272 270 267 265 264 266 268 270 273 274 274 274 274 275 277 277 276 274 274 274 270 268 270 272 273 268 263 260 258 254 245 237 231 231 236 244 255 260 262 262 261 260 260 262 265 269 270 270 269 269 267 263 259 260 260 261 264 268 272 275 277 276 275 272 268 265 263 263
304 298 293 288 285 285 285 285 285 283 283 284 285 284 282 278 271 265 261 261 261 262 262 262 264 266 270 273 274 274 273 275 276 277 277 276 277 278 278 278 281 283 285 285 283 281 279 279 273 257 238 230 229 231 241 250 257 261 262 259 258 259 263 267 270 271 271 271 271 270 267 266 264 264 263 267 272 277 279 279 279 277 275 271 267 266